FENGYUN 1C DEB, 31878

Orbit data source: Space-Track

FENGYUN 1C DEB, 31878 is space debris in SSO originally from a launch on Mon, 10 May 1999 UTC launched from the Taiyaun Space Center, China (TSC). Fengyun 1C debris stems from the Chinese weather satellite Fengyun-1C, which was intentionally destroyed by a Chinese anti-satellite missile in 2007. This event dramatically increased the amount of space debris, with thousands of trackable fragments posing hazards to satellites and human spaceflight. The Fengyun 1C debris cloud has become a focal point in discussions about space sustainability and the need for international regulations to prevent the creation of new debris.

Loading next visibility...
Identifier
31878, 1999-025CKD
Orbit
SSO
Country
Flag of CNCN / PRC
Related business
Manufacturer
Unknown
Mission
Spacecraft
Bus & Motor
Unknown
Mass
Unknown
Launch date (UTC)
1999-05-10 (27 years ago)
Launch vehicle
Unknown
Launch site
Taiyaun Space Center, China (TSC)
Object type
Payload
Rocket body
Debris
Shape & HBR
Unknown shape, 0.1 m
Radar Cross Section
Small (<0.1 m²)

Expand to show TLE details & history
Last TLE update: 5 hours ago

TLE from 5 hours ago
0 FENGYUN 1C DEB
1 31878U 99025CKD 26255.16518214  .00006183  00000-0  58678-3 0  9995
2 31878  99.4616 236.4334 0077322  97.1071 263.8943 14.91759756 21322
Epoch: 2026-09-12T03:57Z
TLE epoch observation values (Epoch: 2026-09-12T03:57:51.736Z)
Latitude
-0°
Longitude
-174.21027°
Altitude
601.58 km
Speed
7.555 km/s
True Right ascension
15h 45m 44s
True Declination
0° 00' 00"
Sunlit
Object was in daylight at epoch
Visualization orbit readout
Latitude
Unknown
Longitude
Unknown
Altitude
Unknown
Speed
Unknown
Apparent Right ascension
Unknown
Apparent Declination
Unknown
Sunlit
N/A
Visualization observer readout
Local Sidereal Time
01:32:18
Azimuth
Unknown
Elevation
Unknown
Doppler factor
Unknown
Orbital elements
Apogee altitude
643.426 km
Perigee altitude
535.675 km
Semi-major axis
6,967.687 km
Eccentricity
0.00773
Inclination
99.4616°
RAAN
236.4334°
Arg. of periapsis
97.1071°
True anomaly
263.01422°
Mean anomaly
263.8943°
Eccentric anomaly
263.45417°
Mean motion
3.73173 °/min
Orbital period
96.47 mins
BSTAR
0.00058678
Loading maneuver chart data...
Computing Atmospheric mass density...

Documentation

Showing up to 5 results
|